Tabellarische Ansicht des 12.12.2019


Die einzelnen Werte des Tages

Uhrzeit Temperatur Luftdruck Luftfeuchte Wind Hi-Wind Taupunkt THW Index Wind Chill Heat Index Solar- strahlung Regen

00:00

3.7 C

1000.6 hpa

95 %

4.8 km/h aus 116

9.7 km/h aus S

2.9 C

2.7 C

2.7 C

3.7 C

0 W/m

0.00 mm

00:05

3.7 C

1000.6 hpa

95 %

6.4 km/h aus 114

9.7 km/h aus SE

2.9 C

2.1 C

2.1 C

3.7 C

0 W/m

0.00 mm

00:10

3.7 C

1000.6 hpa

95 %

6.4 km/h aus 115

9.7 km/h aus SSE

2.9 C

2.1 C

2.1 C

3.7 C

0 W/m

0.00 mm

00:15

3.7 C

1000.5 hpa

95 %

8.0 km/h aus 116

9.7 km/h aus SSE

2.9 C

1.6 C

1.6 C

3.7 C

0 W/m

0.00 mm

00:20

3.7 C

1000.5 hpa

95 %

8.0 km/h aus 116

11.3 km/h aus SSE

2.9 C

1.6 C

1.6 C

3.7 C

0 W/m

0.00 mm

00:25

3.7 C

1000.5 hpa

95 %

6.4 km/h aus 117

9.7 km/h aus SSE

3.0 C

2.1 C

2.1 C

3.7 C

0 W/m

0.00 mm

00:30

3.7 C

1000.5 hpa

95 %

6.4 km/h aus 116

9.7 km/h aus SSE

3.0 C

2.1 C

2.1 C

3.7 C

0 W/m

0.00 mm

00:35

3.7 C

1000.5 hpa

95 %

6.4 km/h aus 117

11.3 km/h aus SSE

3.0 C

2.1 C

2.1 C

3.7 C

0 W/m

0.00 mm

00:40

3.7 C

1000.5 hpa

95 %

6.4 km/h aus 114

11.3 km/h aus S

3.0 C

2.1 C

2.1 C

3.7 C

0 W/m

0.00 mm

00:45

3.8 C

1000.3 hpa

95 %

6.4 km/h aus 116

9.7 km/h aus SSE

3.1 C

2.2 C

2.2 C

3.8 C

0 W/m

0.00 mm

00:50

3.8 C

1000.3 hpa

95 %

8.0 km/h aus 116

14.5 km/h aus S

3.1 C

1.7 C

1.7 C

3.8 C

0 W/m

0.00 mm

00:55

3.8 C

1000.3 hpa

95 %

8.0 km/h aus 117

14.5 km/h aus S

3.1 C

1.7 C

1.7 C

3.8 C

0 W/m

0.00 mm

01:00

3.8 C

1000.2 hpa

95 %

4.8 km/h aus 117

8.0 km/h aus SSE

3.1 C

2.8 C

2.8 C

3.8 C

0 W/m

0.00 mm

01:05

3.8 C

1000.2 hpa

96 %

8.0 km/h aus 117

9.7 km/h aus SSE

3.2 C

1.7 C

1.7 C

3.8 C

0 W/m

0.00 mm

01:10

3.8 C

1000.2 hpa

96 %

9.7 km/h aus 115

16.1 km/h aus SSE

3.2 C

1.3 C

1.3 C

3.8 C

0 W/m

0.00 mm

01:15

3.8 C

1000.0 hpa

96 %

9.7 km/h aus 115

14.5 km/h aus SSW

3.2 C

1.3 C

1.3 C

3.8 C

0 W/m

0.00 mm

01:20

3.8 C

1000.0 hpa

96 %

8.0 km/h aus 116

11.3 km/h aus SSE

3.3 C

1.8 C

1.8 C

3.8 C

0 W/m

0.00 mm

01:25

3.8 C

1000.0 hpa

96 %

8.0 km/h aus 117

11.3 km/h aus SSE

3.2 C

1.7 C

1.7 C

3.8 C

0 W/m

0.00 mm

01:30

3.8 C

1000.0 hpa

96 %

8.0 km/h aus 117

14.5 km/h aus S

3.3 C

1.8 C

1.8 C

3.8 C

0 W/m

0.00 mm

01:35

3.8 C

1000.0 hpa

96 %

9.7 km/h aus 116

14.5 km/h aus S

3.3 C

1.3 C

1.3 C

3.8 C

0 W/m

0.00 mm

01:40

3.8 C

1000.0 hpa

96 %

9.7 km/h aus 118

14.5 km/h aus S

3.3 C

1.3 C

1.3 C

3.8 C

0 W/m

0.00 mm

01:45

3.8 C

999.9 hpa

96 %

8.0 km/h aus 115

14.5 km/h aus S

3.3 C

1.8 C

1.8 C

3.8 C

0 W/m

0.00 mm

01:50

3.8 C

999.9 hpa

96 %

8.0 km/h aus 113

14.5 km/h aus SSE

3.3 C

1.8 C

1.8 C

3.8 C

0 W/m

0.00 mm

01:55

3.8 C

999.9 hpa

96 %

9.7 km/h aus 117

14.5 km/h aus S

3.3 C

1.3 C

1.3 C

3.8 C

0 W/m

0.00 mm

02:00

3.8 C

999.9 hpa

96 %

9.7 km/h aus 117

14.5 km/h aus S

3.3 C

1.3 C

1.3 C

3.8 C

0 W/m

0.00 mm

02:05

3.9 C

999.9 hpa

96 %

9.7 km/h aus 117

12.9 km/h aus S

3.3 C

1.4 C

1.4 C

3.9 C

0 W/m

0.00 mm

02:10

3.9 C

999.9 hpa

96 %

9.7 km/h aus 117

16.1 km/h aus SSE

3.3 C

1.4 C

1.4 C

3.9 C

0 W/m

0.00 mm

02:15

3.9 C

999.7 hpa

96 %

9.7 km/h aus 116

16.1 km/h aus SSE

3.4 C

1.5 C

1.5 C

3.9 C

0 W/m

0.00 mm

02:20

3.9 C

999.7 hpa

96 %

9.7 km/h aus 114

14.5 km/h aus S

3.4 C

1.5 C

1.5 C

3.9 C

0 W/m

0.00 mm

02:25

3.9 C

999.7 hpa

95 %

6.4 km/h aus 115

9.7 km/h aus SSE

3.2 C

2.4 C

2.4 C

3.9 C

0 W/m

0.00 mm

02:30

3.9 C

999.5 hpa

95 %

9.7 km/h aus 117

16.1 km/h aus S

3.2 C

1.5 C

1.5 C

3.9 C

0 W/m

0.00 mm

02:35

3.9 C

999.5 hpa

95 %

9.7 km/h aus 117

14.5 km/h aus S

3.2 C

1.5 C

1.5 C

3.9 C

0 W/m

0.00 mm

02:40

4.0 C

999.5 hpa

95 %

6.4 km/h aus 116

11.3 km/h aus SSE

3.3 C

2.4 C

2.4 C

4.0 C

0 W/m

0.00 mm

02:45

4.0 C

999.5 hpa

95 %

8.0 km/h aus 118

14.5 km/h aus S

3.3 C

1.9 C

1.9 C

4.0 C

0 W/m

0.00 mm

02:50

4.0 C

999.5 hpa

95 %

9.7 km/h aus 114

17.7 km/h aus SSE

3.3 C

1.6 C

1.6 C

4.0 C

0 W/m

0.00 mm

02:55

4.0 C

999.5 hpa

95 %

9.7 km/h aus 115

16.1 km/h aus SSW

3.3 C

1.6 C

1.6 C

4.0 C

0 W/m

0.00 mm

03:00

4.1 C

999.5 hpa

95 %

9.7 km/h aus 115

17.7 km/h aus SSE

3.3 C

1.6 C

1.6 C

4.1 C

0 W/m

0.00 mm

03:05

4.1 C

999.5 hpa

95 %

8.0 km/h aus 117

16.1 km/h aus S

3.3 C

2.1 C

2.1 C

4.1 C

0 W/m

0.00 mm

03:10

4.1 C

999.5 hpa

95 %

9.7 km/h aus 117

16.1 km/h aus SW

3.3 C

1.6 C

1.6 C

4.1 C

0 W/m

0.00 mm

03:15

4.1 C

999.5 hpa

95 %

9.7 km/h aus 117

19.3 km/h aus SSW

3.3 C

1.6 C

1.6 C

4.1 C

0 W/m

0.00 mm

03:20

4.1 C

999.5 hpa

95 %

9.7 km/h aus 117

16.1 km/h aus S

3.4 C

1.7 C

1.7 C

4.1 C

0 W/m

0.00 mm

03:25

4.1 C

999.5 hpa

96 %

9.7 km/h aus 113

17.7 km/h aus S

3.5 C

1.7 C

1.7 C

4.2 C

0 W/m

0.00 mm

03:30

4.2 C

999.3 hpa

96 %

6.4 km/h aus 115

11.3 km/h aus SSE

3.6 C

2.7 C

2.6 C

4.2 C

0 W/m

0.00 mm

03:35

4.2 C

999.3 hpa

96 %

9.7 km/h aus 117

19.3 km/h aus S

3.6 C

1.8 C

1.8 C

4.2 C

0 W/m

0.00 mm

03:40

4.2 C

999.3 hpa

96 %

9.7 km/h aus 117

16.1 km/h aus S

3.6 C

1.9 C

1.8 C

4.3 C

0 W/m

0.00 mm

03:45

4.2 C

999.2 hpa

95 %

8.0 km/h aus 117

17.7 km/h aus S

3.5 C

2.3 C

2.2 C

4.3 C

0 W/m

0.00 mm

03:50

4.2 C

999.2 hpa

95 %

8.0 km/h aus 117

17.7 km/h aus S

3.5 C

2.3 C

2.2 C

4.3 C

0 W/m

0.00 mm

03:55

4.2 C

999.2 hpa

95 %

8.0 km/h aus 116

14.5 km/h aus S

3.5 C

2.3 C

2.2 C

4.3 C

0 W/m

0.00 mm

04:00

4.2 C

999.3 hpa

95 %

11.3 km/h aus 113

17.7 km/h aus S

3.5 C

1.6 C

1.5 C

4.3 C

0 W/m

0.00 mm

04:05

4.3 C

999.3 hpa

95 %

9.7 km/h aus 116

14.5 km/h aus S

3.5 C

1.9 C

1.9 C

4.3 C

0 W/m

0.00 mm

04:10

4.2 C

999.3 hpa

95 %

11.3 km/h aus 116

25.7 km/h aus SSE

3.5 C

1.6 C

1.5 C

4.3 C

0 W/m

0.00 mm

04:15

4.3 C

999.2 hpa

95 %

8.0 km/h aus 117

16.1 km/h aus S

3.5 C

2.3 C

2.3 C

4.3 C

0 W/m

0.00 mm

04:20

4.3 C

999.2 hpa

95 %

9.7 km/h aus 117

22.5 km/h aus SSW

3.5 C

1.9 C

1.9 C

4.3 C

0 W/m

0.00 mm

04:25

4.3 C

999.2 hpa

95 %

9.7 km/h aus 117

14.5 km/h aus SSW

3.5 C

1.9 C

1.9 C

4.3 C

0 W/m

0.00 mm

04:30

4.3 C

999.0 hpa

95 %

8.0 km/h aus 115

22.5 km/h aus S

3.6 C

2.4 C

2.3 C

4.4 C

0 W/m

0.00 mm

04:35

4.3 C

999.0 hpa

95 %

9.7 km/h aus 114

16.1 km/h aus SSW

3.6 C

2.0 C

1.9 C

4.4 C

0 W/m

0.00 mm

04:40

4.3 C

999.0 hpa

95 %

8.0 km/h aus 117

16.1 km/h aus S

3.6 C

2.4 C

2.3 C

4.4 C

0 W/m

0.00 mm

04:45

4.3 C

998.9 hpa

95 %

9.7 km/h aus 117

20.9 km/h aus S

3.6 C

2.0 C

1.9 C

4.4 C

0 W/m

0.00 mm

04:50

4.3 C

998.9 hpa

95 %

14.5 km/h aus 117

22.5 km/h aus S

3.6 C

1.1 C

1.0 C

4.4 C

0 W/m

0.00 mm

04:55

4.3 C

998.9 hpa

95 %

16.1 km/h aus 117

24.1 km/h aus S

3.6 C

0.8 C

0.8 C

4.4 C

0 W/m

0.00 mm

05:00

4.3 C

998.9 hpa

95 %

14.5 km/h aus 117

20.9 km/h aus S

3.6 C

1.1 C

1.0 C

4.4 C

0 W/m

0.00 mm

05:05

4.3 C

998.9 hpa

95 %

12.9 km/h aus 114

20.9 km/h aus S

3.6 C

1.3 C

1.3 C

4.4 C

0 W/m

0.00 mm

05:10

4.3 C

998.9 hpa

95 %

14.5 km/h aus 114

22.5 km/h aus S

3.6 C

1.1 C

1.0 C

4.4 C

0 W/m

0.00 mm

05:15

4.3 C

998.8 hpa

95 %

14.5 km/h aus 117

24.1 km/h aus S

3.6 C

1.1 C

1.0 C

4.4 C

0 W/m

0.00 mm

05:20

4.3 C

998.8 hpa

95 %

11.3 km/h aus 117

19.3 km/h aus S

3.6 C

1.7 C

1.6 C

4.4 C

0 W/m

0.00 mm

05:25

4.3 C

998.8 hpa

95 %

14.5 km/h aus 116

22.5 km/h aus SSE

3.5 C

1.0 C

0.9 C

4.3 C

0 W/m

0.00 mm

05:30

4.3 C

998.4 hpa

95 %

12.9 km/h aus 117

19.3 km/h aus SSE

3.5 C

1.3 C

1.2 C

4.3 C

0 W/m

0.00 mm

05:35

4.2 C

998.4 hpa

95 %

14.5 km/h aus 114

20.9 km/h aus S

3.5 C

0.9 C

0.9 C

4.3 C

0 W/m

0.00 mm

05:40

4.3 C

998.4 hpa

95 %

14.5 km/h aus 115

19.3 km/h aus S

3.5 C

1.0 C

0.9 C

4.3 C

0 W/m

0.00 mm

05:45

4.3 C

998.5 hpa

95 %

11.3 km/h aus 116

19.3 km/h aus S

3.5 C

1.6 C

1.6 C

4.3 C

0 W/m

0.00 mm

05:50

4.3 C

998.5 hpa

95 %

12.9 km/h aus 117

19.3 km/h aus S

3.5 C

1.3 C

1.2 C

4.3 C

0 W/m

0.00 mm

05:55

4.3 C

998.5 hpa

94 %

11.3 km/h aus 116

19.3 km/h aus SSE

3.5 C

1.6 C

1.6 C

4.3 C

0 W/m

0.00 mm

06:00

4.3 C

998.6 hpa

94 %

12.9 km/h aus 118

19.3 km/h aus S

3.5 C

1.3 C

1.3 C

4.3 C

0 W/m

0.00 mm

06:05

4.3 C

998.6 hpa

94 %

11.3 km/h aus 117

19.3 km/h aus S

3.5 C

1.6 C

1.6 C

4.3 C

0 W/m

0.00 mm

06:10

4.3 C

998.6 hpa

94 %

8.0 km/h aus 114

16.1 km/h aus SSE

3.5 C

2.3 C

2.3 C

4.3 C

0 W/m

0.00 mm

06:15

4.3 C

998.5 hpa

94 %

8.0 km/h aus 113

14.5 km/h aus S

3.5 C

2.3 C

2.3 C

4.3 C

0 W/m

0.00 mm

06:20

4.3 C

998.5 hpa

94 %

8.0 km/h aus 116

14.5 km/h aus S

3.5 C

2.3 C

2.3 C

4.3 C

0 W/m

0.00 mm

06:25

4.3 C

998.5 hpa

94 %

4.8 km/h aus 117

9.7 km/h aus S

3.5 C

3.4 C

3.4 C

4.3 C

0 W/m

0.00 mm

06:30

4.3 C

998.5 hpa

94 %

4.8 km/h aus 117

11.3 km/h aus S

3.5 C

3.4 C

3.4 C

4.3 C

0 W/m

0.00 mm

06:35

4.3 C

998.5 hpa

94 %

6.4 km/h aus 117

14.5 km/h aus SSE

3.5 C

2.8 C

2.8 C

4.3 C

0 W/m

0.00 mm

06:40

4.3 C

998.5 hpa

94 %

8.0 km/h aus 116

17.7 km/h aus S

3.5 C

2.3 C

2.3 C

4.3 C

0 W/m

0.00 mm

06:45

4.3 C

998.4 hpa

94 %

8.0 km/h aus 113

14.5 km/h aus SSE

3.5 C

2.3 C

2.3 C

4.3 C

0 W/m

0.00 mm

06:50

4.3 C

998.4 hpa

94 %

6.4 km/h aus 116

11.3 km/h aus SSW

3.5 C

2.8 C

2.8 C

4.3 C

0 W/m

0.00 mm

06:55

4.3 C

998.4 hpa

94 %

6.4 km/h aus 116

11.3 km/h aus SSW

3.4 C

2.8 C

2.8 C

4.3 C

0 W/m

0.00 mm

07:00

4.3 C

998.5 hpa

94 %

8.0 km/h aus 117

16.1 km/h aus S

3.4 C

2.3 C

2.3 C

4.3 C

0 W/m

0.00 mm

07:05

4.3 C

998.5 hpa

94 %

9.7 km/h aus 118

16.1 km/h aus S

3.4 C

1.9 C

1.9 C

4.3 C

0 W/m

0.00 mm

07:10

4.3 C

998.5 hpa

94 %

9.7 km/h aus 117

17.7 km/h aus S

3.5 C

1.9 C

1.9 C

4.3 C

0 W/m

0.00 mm

07:15

4.3 C

998.4 hpa

94 %

9.7 km/h aus 115

16.1 km/h aus S

3.5 C

1.9 C

1.9 C

4.3 C

0 W/m

0.00 mm

07:20

4.3 C

998.4 hpa

94 %

9.7 km/h aus 114

17.7 km/h aus S

3.5 C

1.9 C

1.9 C

4.3 C

0 W/m

0.00 mm

07:25

4.3 C

998.4 hpa

93 %

12.9 km/h aus 115

20.9 km/h aus S

3.3 C

1.3 C

1.3 C

4.3 C

0 W/m

0.00 mm

07:30

4.3 C

998.4 hpa

93 %

11.3 km/h aus 117

19.3 km/h aus S

3.3 C

1.6 C

1.6 C

4.3 C

0 W/m

0.00 mm

07:35

4.3 C

998.4 hpa

93 %

11.3 km/h aus 117

19.3 km/h aus S

3.3 C

1.6 C

1.6 C

4.3 C

0 W/m

0.00 mm

07:40

4.3 C

998.4 hpa

93 %

14.5 km/h aus 117

20.9 km/h aus SSE

3.3 C

1.0 C

1.0 C

4.3 C

0 W/m

0.00 mm

07:45

4.3 C

998.4 hpa

93 %

12.9 km/h aus 117

19.3 km/h aus SSE

3.3 C

1.3 C

1.3 C

4.3 C

0 W/m

0.00 mm

07:50

4.3 C

998.4 hpa

93 %

14.5 km/h aus 114

22.5 km/h aus S

3.3 C

1.0 C

1.0 C

4.3 C

0 W/m

0.00 mm

07:55

4.4 C

998.4 hpa

93 %

17.7 km/h aus 115

30.6 km/h aus S

3.4 C

0.6 C

0.6 C

4.4 C

0 W/m

0.00 mm

08:00

4.4 C

998.4 hpa

93 %

14.5 km/h aus 117

24.1 km/h aus SSE

3.4 C

1.1 C

1.1 C

4.4 C

0 W/m

0.00 mm

08:05

4.4 C

998.4 hpa

93 %

16.1 km/h aus 117

24.1 km/h aus S

3.4 C

0.9 C

0.9 C

4.4 C

0 W/m

0.00 mm

08:10

4.4 C

998.4 hpa

92 %

17.7 km/h aus 118

25.7 km/h aus S

3.3 C

0.7 C

0.7 C

4.4 C

0 W/m

0.00 mm

08:15

4.5 C

998.4 hpa

92 %

14.5 km/h aus 117

27.4 km/h aus SSW

3.3 C

1.2 C

1.2 C

4.5 C

0 W/m

0.00 mm

08:20

4.5 C

998.4 hpa

92 %

17.7 km/h aus 115

25.7 km/h aus SSW

3.3 C

0.7 C

0.7 C

4.5 C

3 W/m

0.00 mm

08:25

4.5 C

998.4 hpa

92 %

17.7 km/h aus 114

25.7 km/h aus S

3.3 C

0.7 C

0.7 C

4.5 C

7 W/m

0.00 mm

08:30

4.5 C

998.5 hpa

92 %

17.7 km/h aus 115

25.7 km/h aus SSE

3.3 C

0.7 C

0.7 C

4.5 C

9 W/m

0.00 mm

08:35

4.5 C

998.5 hpa

92 %

14.5 km/h aus 117

22.5 km/h aus S

3.3 C

1.2 C

1.2 C

4.5 C

11 W/m

0.00 mm

08:40

4.5 C

998.5 hpa

92 %

16.1 km/h aus 117

22.5 km/h aus SSW

3.3 C

0.9 C

0.9 C

4.5 C

11 W/m

0.00 mm

08:45

4.5 C

998.4 hpa

91 %

17.7 km/h aus 116

30.6 km/h aus SSE

3.2 C

0.7 C

0.7 C

4.4 C

14 W/m

0.00 mm

08:50

4.5 C

998.4 hpa

91 %

12.9 km/h aus 117

22.5 km/h aus SSW

3.2 C

1.4 C

1.5 C

4.4 C

15 W/m

0.00 mm

08:55

4.6 C

998.4 hpa

91 %

12.9 km/h aus 115

24.1 km/h aus S

3.2 C

1.5 C

1.6 C

4.5 C

15 W/m

0.00 mm

09:00

4.6 C

998.5 hpa

91 %

16.1 km/h aus 114

24.1 km/h aus SSE

3.2 C

0.9 C

1.0 C

4.5 C

26 W/m

0.00 mm

09:05

4.6 C

998.5 hpa

91 %

14.5 km/h aus 116

20.9 km/h aus S

3.3 C

1.3 C

1.4 C

4.6 C

27 W/m

0.00 mm

09:10

4.6 C

998.5 hpa

91 %

16.1 km/h aus 117

22.5 km/h aus S

3.2 C

0.9 C

1.0 C

4.5 C

26 W/m

0.00 mm

09:15

4.6 C

998.4 hpa

91 %

16.1 km/h aus 118

32.2 km/h aus S

3.2 C

0.9 C

1.0 C

4.5 C

30 W/m

0.00 mm

09:20

4.6 C

998.4 hpa

91 %

14.5 km/h aus 116

22.5 km/h aus S

3.2 C

1.2 C

1.3 C

4.5 C

42 W/m

0.00 mm

09:25

4.5 C

998.4 hpa

91 %

14.5 km/h aus 116

20.9 km/h aus SSE

3.2 C

1.2 C

1.2 C

4.4 C

61 W/m

0.00 mm

09:30

4.5 C

998.4 hpa

91 %

14.5 km/h aus 114

19.3 km/h aus SSW

3.2 C

1.2 C

1.2 C

4.4 C

58 W/m

0.00 mm

09:35

4.5 C

998.4 hpa

91 %

11.3 km/h aus 116

19.3 km/h aus S

3.2 C

1.7 C

1.8 C

4.4 C

77 W/m

0.00 mm

09:40

4.6 C

998.4 hpa

91 %

12.9 km/h aus 116

20.9 km/h aus SSW

3.2 C

1.5 C

1.6 C

4.5 C

93 W/m

0.00 mm

09:45

4.7 C

998.5 hpa

91 %

12.9 km/h aus 116

20.9 km/h aus SW

3.3 C

1.7 C

1.7 C

4.6 C

73 W/m

0.00 mm

09:50

4.7 C

998.5 hpa

91 %

12.9 km/h aus 117

20.9 km/h aus S

3.4 C

1.7 C

1.8 C

4.7 C

67 W/m

0.00 mm

09:55

4.7 C

998.5 hpa

91 %

11.3 km/h aus 117

19.3 km/h aus SSW

3.4 C

2.0 C

2.1 C

4.7 C

77 W/m

0.00 mm

10:00

4.8 C

998.4 hpa

91 %

9.7 km/h aus 114

17.7 km/h aus SW

3.4 C

2.4 C

2.5 C

4.7 C

109 W/m

0.00 mm

10:05

4.9 C

998.4 hpa

91 %

9.7 km/h aus 115

22.5 km/h aus S

3.6 C

2.6 C

2.7 C

4.9 C

134 W/m

0.00 mm

10:10

5.1 C

998.4 hpa

90 %

9.7 km/h aus 117

17.7 km/h aus SSE

3.6 C

2.8 C

2.8 C

5.1 C

110 W/m

0.00 mm

10:15

5.2 C

998.5 hpa

90 %

16.1 km/h aus 117

22.5 km/h aus SSE

3.7 C

1.7 C

1.8 C

5.1 C

94 W/m

0.00 mm

10:20

5.2 C

998.5 hpa

90 %

12.9 km/h aus 118

20.9 km/h aus S

3.7 C

2.3 C

2.3 C

5.1 C

61 W/m

0.00 mm

10:25

5.2 C

998.5 hpa

90 %

11.3 km/h aus 117

22.5 km/h aus S

3.7 C

2.6 C

2.6 C

5.1 C

61 W/m

0.00 mm

10:30

5.2 C

998.4 hpa

90 %

12.9 km/h aus 116

24.1 km/h aus S

3.7 C

2.3 C

2.3 C

5.1 C

61 W/m

0.00 mm

10:35

5.2 C

998.4 hpa

90 %

12.9 km/h aus 113

24.1 km/h aus SSW

3.7 C

2.3 C

2.4 C

5.2 C

71 W/m

0.00 mm

10:40

5.2 C

998.4 hpa

90 %

14.5 km/h aus 116

22.5 km/h aus S

3.7 C

2.1 C

2.1 C

5.2 C

71 W/m

0.00 mm

10:45

5.2 C

998.3 hpa

90 %

14.5 km/h aus 117

22.5 km/h aus SSE

3.7 C

2.1 C

2.1 C

5.2 C

71 W/m

0.00 mm

10:50

5.2 C

998.3 hpa

90 %

12.9 km/h aus 117

20.9 km/h aus SSW

3.7 C

2.3 C

2.4 C

5.2 C

71 W/m

0.00 mm

10:55

5.2 C

998.3 hpa

90 %

14.5 km/h aus 116

25.7 km/h aus S

3.7 C

2.1 C

2.1 C

5.2 C

71 W/m

0.00 mm

11:00

5.3 C

998.3 hpa

90 %

19.3 km/h aus 114

29.0 km/h aus S

3.8 C

1.4 C

1.4 C

5.3 C

69 W/m

0.00 mm

11:05

5.3 C

998.3 hpa

90 %

11.3 km/h aus 114

19.3 km/h aus S

3.8 C

2.7 C

2.7 C

5.3 C

77 W/m

0.00 mm

11:10

5.3 C

998.3 hpa

90 %

12.9 km/h aus 115

19.3 km/h aus SSW

3.8 C

2.5 C

2.5 C

5.3 C

85 W/m

0.00 mm

11:15

5.3 C

998.0 hpa

90 %

14.5 km/h aus 116

24.1 km/h aus SSW

3.8 C

2.2 C

2.2 C

5.3 C

76 W/m

0.00 mm

11:20

5.3 C

998.0 hpa

89 %

16.1 km/h aus 117

20.9 km/h aus SSW

3.7 C

1.9 C

1.9 C

5.3 C

64 W/m

0.00 mm

11:25

5.4 C

998.0 hpa

89 %

14.5 km/h aus 117

22.5 km/h aus SSE

3.7 C

2.2 C

2.3 C

5.3 C

60 W/m

0.00 mm

11:30

5.4 C

998.0 hpa

89 %

14.5 km/h aus 117

22.5 km/h aus SSE

3.7 C

2.2 C

2.3 C

5.3 C

62 W/m

0.00 mm

11:35

5.4 C

998.0 hpa

89 %

17.7 km/h aus 114

25.7 km/h aus S

3.7 C

1.7 C

1.8 C

5.3 C

65 W/m

0.00 mm

11:40

5.4 C

998.0 hpa

89 %

16.1 km/h aus 116

20.9 km/h aus SSE

3.7 C

1.9 C

2.0 C

5.3 C

81 W/m

0.00 mm

11:45

5.4 C

997.9 hpa

89 %

12.9 km/h aus 117

19.3 km/h aus S

3.8 C

2.6 C

2.7 C

5.4 C

78 W/m

0.00 mm

11:50

5.4 C

997.9 hpa

89 %

12.9 km/h aus 117

30.6 km/h aus S

3.8 C

2.6 C

2.7 C

5.4 C

92 W/m

0.00 mm

11:55

5.4 C

997.9 hpa

89 %

14.5 km/h aus 117

22.5 km/h aus S

3.8 C

2.3 C

2.4 C

5.4 C

80 W/m

0.00 mm

12:00

5.4 C

997.8 hpa

89 %

12.9 km/h aus 117

20.9 km/h aus SSW

3.8 C

2.6 C

2.7 C

5.4 C

70 W/m

0.00 mm

12:05

5.4 C

997.8 hpa

89 %

11.3 km/h aus 115

19.3 km/h aus SSW

3.8 C

2.9 C

2.9 C

5.4 C

68 W/m

0.00 mm

12:10

5.5 C

997.8 hpa

89 %

11.3 km/h aus 114

20.9 km/h aus SSE

3.8 C

3.0 C

3.0 C

5.5 C

73 W/m

0.00 mm

12:15

5.5 C

997.5 hpa

89 %

11.3 km/h aus 117

20.9 km/h aus SSW

3.8 C

3.0 C

3.0 C

5.5 C

71 W/m

0.00 mm

12:20

5.5 C

997.5 hpa

88 %

14.5 km/h aus 117

22.5 km/h aus S

3.7 C

2.4 C

2.4 C

5.4 C

65 W/m

0.00 mm

12:25

5.5 C

997.5 hpa

88 %

14.5 km/h aus 117

22.5 km/h aus SSE

3.7 C

2.4 C

2.4 C

5.4 C

75 W/m

0.00 mm

12:30

5.5 C

997.4 hpa

88 %

11.3 km/h aus 117

19.3 km/h aus SSW

3.7 C

2.9 C

3.0 C

5.4 C

79 W/m

0.00 mm

12:35

5.6 C

997.4 hpa

88 %

12.9 km/h aus 114

22.5 km/h aus SSW

3.7 C

2.7 C

2.8 C

5.5 C

75 W/m

0.00 mm

12:40

5.6 C

997.4 hpa

88 %

14.5 km/h aus 114

24.1 km/h aus SSW

3.7 C

2.4 C

2.5 C

5.5 C

75 W/m

0.00 mm

12:45

5.6 C

997.3 hpa

88 %

12.9 km/h aus 117

24.1 km/h aus SSE

3.7 C

2.7 C

2.8 C

5.5 C

63 W/m

0.00 mm

12:50

5.6 C

997.3 hpa

88 %

11.3 km/h aus 117

24.1 km/h aus S

3.7 C

3.0 C

3.1 C

5.5 C

72 W/m

0.00 mm

12:55

5.6 C

997.3 hpa

87 %

9.7 km/h aus 116

20.9 km/h aus S

3.6 C

3.4 C

3.4 C

5.6 C

59 W/m

0.00 mm

13:00

5.7 C

997.0 hpa

87 %

14.5 km/h aus 117

22.5 km/h aus SSE

3.7 C

2.6 C

2.6 C

5.6 C

46 W/m

0.00 mm

13:05

5.7 C

997.0 hpa

87 %

11.3 km/h aus 114

20.9 km/h aus SSW

3.7 C

3.2 C

3.2 C

5.6 C

53 W/m

0.00 mm

13:10

5.7 C

997.0 hpa

87 %

11.3 km/h aus 113

17.7 km/h aus S

3.7 C

3.2 C

3.2 C

5.6 C

59 W/m

0.00 mm

13:15

5.7 C

996.7 hpa

87 %

9.7 km/h aus 117

17.7 km/h aus S

3.7 C

3.4 C

3.5 C

5.6 C

58 W/m

0.00 mm

13:20

5.7 C

996.7 hpa

87 %

12.9 km/h aus 117

17.7 km/h aus S

3.7 C

2.8 C

2.9 C

5.6 C

50 W/m

0.00 mm

13:25

5.7 C

996.7 hpa

87 %

11.3 km/h aus 117

17.7 km/h aus S

3.7 C

3.2 C

3.3 C

5.7 C

43 W/m

0.00 mm

13:30

5.7 C

996.4 hpa

87 %

9.7 km/h aus 117

16.1 km/h aus SSE

3.7 C

3.6 C

3.6 C

5.7 C

33 W/m

0.00 mm

13:35

5.7 C

996.4 hpa

88 %

8.0 km/h aus 117

11.3 km/h aus S

3.8 C

3.8 C

3.9 C

5.6 C

38 W/m

0.00 mm

13:40

5.7 C

996.4 hpa

88 %

11.3 km/h aus 115

20.9 km/h aus S

3.9 C

3.2 C

3.3 C

5.7 C

61 W/m

0.00 mm

13:45

5.7 C

996.3 hpa

88 %

14.5 km/h aus 116

22.5 km/h aus SSE

3.8 C

2.6 C

2.6 C

5.6 C

56 W/m

0.00 mm

13:50

5.7 C

996.3 hpa

88 %

12.9 km/h aus 116

20.9 km/h aus SSE

3.8 C

2.8 C

2.9 C

5.6 C

59 W/m

0.00 mm

13:55

5.7 C

996.3 hpa

88 %

14.5 km/h aus 117

22.5 km/h aus SSE

3.9 C

2.6 C

2.7 C

5.7 C

75 W/m

0.00 mm

14:00

5.8 C

996.1 hpa

87 %

16.1 km/h aus 117

27.4 km/h aus S

3.8 C

2.4 C

2.4 C

5.7 C

84 W/m

0.00 mm

14:05

5.8 C

996.1 hpa

87 %

16.1 km/h aus 117

22.5 km/h aus SSE

3.8 C

2.4 C

2.4 C

5.7 C

85 W/m

0.00 mm

14:10

5.8 C

996.1 hpa

87 %

14.5 km/h aus 114

20.9 km/h aus SE

3.8 C

2.7 C

2.7 C

5.7 C

76 W/m

0.00 mm

14:15

5.8 C

995.8 hpa

87 %

16.1 km/h aus 115

29.0 km/h aus S

3.8 C

2.5 C

2.6 C

5.8 C

93 W/m

0.00 mm

14:20

5.8 C

995.8 hpa

86 %

19.3 km/h aus 117

27.4 km/h aus S

3.7 C

2.0 C

2.1 C

5.8 C

88 W/m

0.00 mm

14:25

5.8 C

995.8 hpa

85 %

17.7 km/h aus 117

27.4 km/h aus S

3.5 C

2.2 C

2.3 C

5.8 C

84 W/m

0.00 mm

14:30

5.8 C

995.8 hpa

85 %

14.5 km/h aus 117

20.9 km/h aus SSE

3.5 C

2.8 C

2.8 C

5.8 C

74 W/m

0.00 mm

14:35

5.8 C

995.8 hpa

85 %

14.5 km/h aus 117

20.9 km/h aus SSE

3.5 C

2.8 C

2.8 C

5.8 C

64 W/m

0.00 mm

14:40

5.8 C

995.8 hpa

85 %

17.7 km/h aus 115

24.1 km/h aus SSE

3.5 C

2.1 C

2.2 C

5.7 C

56 W/m

0.00 mm

14:45

5.7 C

995.8 hpa

85 %

14.5 km/h aus 114

20.9 km/h aus SSE

3.4 C

2.6 C

2.7 C

5.6 C

45 W/m

0.00 mm

14:50

5.7 C

995.8 hpa

84 %

17.7 km/h aus 116

22.5 km/h aus SSE

3.2 C

1.9 C

2.1 C

5.6 C

36 W/m

0.00 mm

14:55

5.6 C

995.8 hpa

85 %

14.5 km/h aus 117

22.5 km/h aus S

3.3 C

2.4 C

2.6 C

5.5 C

31 W/m

0.00 mm

15:00

5.6 C

995.7 hpa

84 %

16.1 km/h aus 117

24.1 km/h aus SSE

3.1 C

2.1 C

2.2 C

5.4 C

28 W/m

0.00 mm

15:05

5.6 C

995.7 hpa

84 %

14.5 km/h aus 117

19.3 km/h aus SSE

3.1 C

2.4 C

2.5 C

5.4 C

35 W/m

0.00 mm

15:10

5.5 C

995.7 hpa

84 %

16.1 km/h aus 114

24.1 km/h aus SE

3.0 C

2.1 C

2.2 C

5.4 C

22 W/m

0.00 mm

15:15

5.4 C

995.6 hpa

84 %

17.7 km/h aus 115

22.5 km/h aus SE

3.0 C

1.7 C

1.8 C

5.3 C

16 W/m

0.00 mm

15:20

5.4 C

995.6 hpa

84 %

11.3 km/h aus 117

20.9 km/h aus S

2.9 C

2.7 C

2.8 C

5.3 C

14 W/m

0.00 mm

15:25

5.4 C

995.6 hpa

84 %

12.9 km/h aus 116

19.3 km/h aus SSE

2.9 C

2.4 C

2.6 C

5.3 C

12 W/m

0.00 mm

15:30

5.3 C

995.3 hpa

84 %

11.3 km/h aus 117

17.7 km/h aus S

2.8 C

2.7 C

2.8 C

5.2 C

12 W/m

0.00 mm

15:35

5.3 C

995.3 hpa

84 %

14.5 km/h aus 116

17.7 km/h aus SSE

2.8 C

2.1 C

2.2 C

5.2 C

11 W/m

0.00 mm

15:40

5.3 C

995.3 hpa

84 %

16.1 km/h aus 116

20.9 km/h aus SE

2.8 C

1.8 C

1.9 C

5.2 C

13 W/m

0.00 mm

15:45

5.3 C

995.2 hpa

84 %

16.1 km/h aus 114

20.9 km/h aus S

2.8 C

1.8 C

1.9 C

5.2 C

18 W/m

0.00 mm

15:50

5.2 C

995.2 hpa

84 %

16.1 km/h aus 116

20.9 km/h aus SSE

2.7 C

1.7 C

1.8 C

5.1 C

11 W/m

0.00 mm

15:55

5.1 C

995.2 hpa

84 %

14.5 km/h aus 117

22.5 km/h aus S

2.6 C

1.8 C

1.9 C

5.0 C

8 W/m

0.00 mm

16:00

4.9 C

995.2 hpa

84 %

17.7 km/h aus 117

24.1 km/h aus SSE

2.5 C

1.2 C

1.3 C

4.8 C

5 W/m

0.00 mm

16:05

4.8 C

995.2 hpa

84 %

16.1 km/h aus 117

22.5 km/h aus SSE

2.4 C

1.2 C

1.3 C

4.7 C

1 W/m

0.00 mm

16:10

4.8 C

995.2 hpa

84 %

12.9 km/h aus 116

19.3 km/h aus S

2.3 C

1.7 C

1.8 C

4.7 C

0 W/m

0.00 mm

16:15

4.7 C

995.0 hpa

84 %

14.5 km/h aus 113

20.9 km/h aus SSE

2.2 C

1.3 C

1.4 C

4.6 C

0 W/m

0.00 mm

16:20

4.6 C

995.0 hpa

85 %

14.5 km/h aus 115

19.3 km/h aus SSE

2.3 C

1.2 C

1.3 C

4.4 C

0 W/m

0.00 mm

16:25

4.5 C

995.0 hpa

85 %

14.5 km/h aus 117

19.3 km/h aus SSE

2.2 C

1.1 C

1.2 C

4.4 C

0 W/m

0.00 mm

16:30

4.4 C

994.8 hpa

85 %

16.1 km/h aus 116

24.1 km/h aus SE

2.1 C

0.8 C

0.9 C

4.3 C

0 W/m

0.00 mm

16:35

4.4 C

994.8 hpa

85 %

12.9 km/h aus 117

20.9 km/h aus S

2.1 C

1.3 C

1.4 C

4.3 C

0 W/m

0.00 mm

16:40

4.4 C

994.8 hpa

85 %

16.1 km/h aus 117

20.9 km/h aus SSE

2.1 C

0.7 C

0.8 C

4.3 C

0 W/m

0.00 mm

16:45

4.3 C

994.7 hpa

85 %

12.9 km/h aus 115

16.1 km/h aus SSE

2.0 C

1.2 C

1.3 C

4.2 C

0 W/m

0.00 mm

16:50

4.2 C

994.7 hpa

85 %

12.9 km/h aus 116

20.9 km/h aus S

1.9 C

1.1 C

1.2 C

4.1 C

0 W/m

0.00 mm

16:55

4.2 C

994.7 hpa

85 %

12.9 km/h aus 114

19.3 km/h aus SSE

1.9 C

1.0 C

1.1 C

4.1 C

0 W/m

0.00 mm

17:00

4.1 C

994.3 hpa

85 %

11.3 km/h aus 117

14.5 km/h aus SSE

1.8 C

1.2 C

1.3 C

4.0 C

0 W/m

0.00 mm

17:05

4.1 C

994.3 hpa

85 %

12.9 km/h aus 117

17.7 km/h aus SSE

1.8 C

0.8 C

0.9 C

3.9 C

0 W/m

0.00 mm

17:10

4.1 C

994.3 hpa

85 %

12.9 km/h aus 117

19.3 km/h aus SSE

1.8 C

0.8 C

0.9 C

3.9 C

0 W/m

0.00 mm

17:15

4.0 C

994.2 hpa

85 %

12.9 km/h aus 117

17.7 km/h aus SSE

1.7 C

0.8 C

0.9 C

3.9 C

0 W/m

0.00 mm

17:20

3.9 C

994.2 hpa

85 %

14.5 km/h aus 115

19.3 km/h aus S

1.6 C

0.4 C

0.5 C

3.8 C

0 W/m

0.00 mm

17:25

3.8 C

994.2 hpa

85 %

11.3 km/h aus 113

17.7 km/h aus SSE

1.5 C

0.9 C

1.0 C

3.7 C

0 W/m

0.00 mm

17:30

3.8 C

994.1 hpa

85 %

11.3 km/h aus 115

17.7 km/h aus SE

1.5 C

0.8 C

0.9 C

3.7 C

0 W/m

0.00 mm

17:35

3.7 C

994.1 hpa

85 %

11.3 km/h aus 116

14.5 km/h aus SE

1.4 C

0.8 C

0.9 C

3.6 C

0 W/m

0.00 mm

17:40

3.7 C

994.1 hpa

86 %

9.7 km/h aus 117

16.1 km/h aus SE

1.6 C

1.1 C

1.2 C

3.6 C

0 W/m

0.00 mm

17:45

3.7 C

993.7 hpa

86 %

11.3 km/h aus 117

16.1 km/h aus SE

1.5 C

0.7 C

0.8 C

3.6 C

0 W/m

0.00 mm

17:50

3.6 C

993.7 hpa

87 %

9.7 km/h aus 117

17.7 km/h aus SE

1.6 C

1.0 C

1.1 C

3.5 C

0 W/m

0.00 mm

17:55

3.6 C

993.7 hpa

87 %

9.7 km/h aus 114

16.1 km/h aus ESE

1.6 C

0.9 C

1.1 C

3.4 C

0 W/m

0.00 mm

18:00

3.4 C

993.7 hpa

87 %

12.9 km/h aus 113

17.7 km/h aus SE

1.5 C

0.1 C

0.2 C

3.3 C

0 W/m

0.00 mm

18:05

3.3 C

993.7 hpa

87 %

11.3 km/h aus 117

16.1 km/h aus SE

1.3 C

0.2 C

0.3 C

3.2 C

0 W/m

0.00 mm

18:10

3.2 C

993.7 hpa

88 %

12.9 km/h aus 117

17.7 km/h aus SE

1.4 C

-0.1 C

-0.1 C

3.2 C

0 W/m

0.00 mm

18:15

3.1 C

993.5 hpa

88 %

12.9 km/h aus 116

19.3 km/h aus SE

1.3 C

-0.2 C

-0.2 C

3.1 C

0 W/m

0.00 mm

18:20

3.0 C

993.5 hpa

88 %

12.9 km/h aus 117

17.7 km/h aus SE

1.2 C

-0.4 C

-0.3 C

2.9 C

0 W/m

0.00 mm

18:25

2.9 C

993.5 hpa

89 %

11.3 km/h aus 116

16.1 km/h aus SE

1.3 C

-0.1 C

-0.1 C

2.9 C

0 W/m

0.00 mm

18:30

2.9 C

993.2 hpa

89 %

12.9 km/h aus 115

17.7 km/h aus SE

1.3 C

-0.5 C

-0.4 C

2.8 C

0 W/m

0.00 mm

18:35

2.8 C

993.2 hpa

89 %

11.3 km/h aus 114

17.7 km/h aus SE

1.2 C

-0.3 C

-0.2 C

2.8 C

0 W/m

0.00 mm

18:40

2.8 C

993.2 hpa

89 %

14.5 km/h aus 114

19.3 km/h aus SE

1.1 C

-0.9 C

-0.9 C

2.7 C

0 W/m

0.00 mm

18:45

2.8 C

993.1 hpa

90 %

14.5 km/h aus 117

17.7 km/h aus SE

1.3 C

-0.9 C

-0.9 C

2.7 C

0 W/m

0.00 mm

18:50

2.8 C

993.1 hpa

90 %

16.1 km/h aus 117

22.5 km/h aus SE

1.4 C

-1.2 C

-1.1 C

2.8 C

0 W/m

0.00 mm

18:55

2.8 C

993.1 hpa

90 %

14.5 km/h aus 117

20.9 km/h aus SE

1.3 C

-0.9 C

-0.9 C

2.7 C

0 W/m

0.00 mm

19:00

2.8 C

992.7 hpa

90 %

16.1 km/h aus 117

22.5 km/h aus SE

1.3 C

-1.2 C

-1.2 C

2.7 C

0 W/m

0.00 mm

19:05

2.7 C

992.7 hpa

90 %

14.5 km/h aus 116

19.3 km/h aus ESE

1.2 C

-1.0 C

-0.9 C

2.7 C

0 W/m

0.00 mm

19:10

2.7 C

992.7 hpa

90 %

16.1 km/h aus 114

22.5 km/h aus SE

1.2 C

-1.3 C

-1.3 C

2.6 C

0 W/m

0.00 mm

19:15

2.6 C

992.5 hpa

89 %

16.1 km/h aus 114

19.3 km/h aus ESE

1.0 C

-1.4 C

-1.3 C

2.6 C

0 W/m

0.00 mm

19:20

2.6 C

992.5 hpa

89 %

12.9 km/h aus 117

19.3 km/h aus SE

1.0 C

-0.8 C

-0.8 C

2.6 C

0 W/m

0.00 mm

19:25

2.6 C

992.5 hpa

89 %

14.5 km/h aus 117

17.7 km/h aus ESE

0.9 C

-1.2 C

-1.2 C

2.5 C

0 W/m

0.00 mm

19:30

2.6 C

992.1 hpa

89 %

9.7 km/h aus 117

17.7 km/h aus ESE

0.9 C

-0.2 C

-0.2 C

2.5 C

0 W/m

0.00 mm

19:35

2.5 C

992.1 hpa

89 %

9.7 km/h aus 117

16.1 km/h aus E

0.9 C

-0.3 C

-0.2 C

2.4 C

0 W/m

0.00 mm

19:40

2.4 C

992.1 hpa

89 %

11.3 km/h aus 117

17.7 km/h aus ESE

0.8 C

-0.7 C

-0.7 C

2.4 C

0 W/m

0.00 mm

19:45

2.4 C

991.6 hpa

89 %

11.3 km/h aus 115

17.7 km/h aus ESE

0.8 C

-0.7 C

-0.7 C

2.4 C

0 W/m

0.00 mm

19:50

2.4 C

991.6 hpa

89 %

9.7 km/h aus 114

16.1 km/h aus ESE

0.8 C

-0.4 C

-0.3 C

2.3 C

0 W/m

0.00 mm

19:55

2.3 C

991.6 hpa

89 %

9.7 km/h aus 115

17.7 km/h aus E

0.7 C

-0.5 C

-0.4 C

2.3 C

0 W/m

0.00 mm

20:00

2.3 C

991.3 hpa

89 %

9.7 km/h aus 116

16.1 km/h aus ESE

0.7 C

-0.6 C

-0.5 C

2.2 C

0 W/m

0.00 mm

20:05

2.2 C

991.3 hpa

89 %

6.4 km/h aus 118

16.1 km/h aus ESE

0.6 C

0.3 C

0.4 C

2.2 C

0 W/m

0.00 mm

20:10

2.1 C

991.3 hpa

88 %

8.0 km/h aus 117

12.9 km/h aus ESE

0.3 C

-0.3 C

-0.3 C

2.1 C

0 W/m

0.00 mm

20:15

2.1 C

991.1 hpa

88 %

8.0 km/h aus 117

14.5 km/h aus ESE

0.3 C

-0.4 C

-0.3 C

2.0 C

0 W/m

0.00 mm

20:20

2.0 C

991.1 hpa

88 %

9.7 km/h aus 114

16.1 km/h aus ESE

0.2 C

-0.9 C

-0.8 C

1.9 C

0 W/m

0.00 mm

20:25

2.0 C

991.1 hpa

88 %

9.7 km/h aus 114

19.3 km/h aus ESE

0.2 C

-0.9 C

-0.8 C

1.9 C

0 W/m

0.00 mm

20:30

1.9 C

990.6 hpa

88 %

9.7 km/h aus 114

17.7 km/h aus ESE

0.2 C

-0.9 C

-0.9 C

1.9 C

0 W/m

0.00 mm

20:35

1.9 C

990.6 hpa

87 %

12.9 km/h aus 117

20.9 km/h aus SE

0.0 C

-1.7 C

-1.6 C

1.8 C

0 W/m

0.00 mm

20:40

1.9 C

990.6 hpa

87 %

12.9 km/h aus 117

24.1 km/h aus ESE

0.0 C

-1.7 C

-1.6 C

1.8 C

0 W/m

0.00 mm

20:45

2.0 C

990.3 hpa

87 %

12.9 km/h aus 117

20.9 km/h aus SE

0.1 C

-1.7 C

-1.6 C

1.9 C

0 W/m

0.00 mm

20:50

2.0 C

990.3 hpa

87 %

12.9 km/h aus 116

22.5 km/h aus SE

0.1 C

-1.7 C

-1.6 C

1.9 C

0 W/m

0.00 mm

20:55

2.1 C

990.3 hpa

87 %

14.5 km/h aus 116

22.5 km/h aus ESE

0.2 C

-1.8 C

-1.7 C

2.0 C

0 W/m

0.00 mm

21:00

2.2 C

990.0 hpa

87 %

14.5 km/h aus 115

22.5 km/h aus SE

0.2 C

-1.7 C

-1.6 C

2.1 C

0 W/m

0.00 mm

21:05

2.2 C

990.0 hpa

87 %

16.1 km/h aus 113

22.5 km/h aus ESE

0.3 C

-1.9 C

-1.8 C

2.1 C

0 W/m

0.00 mm

21:10

2.2 C

990.0 hpa

86 %

12.9 km/h aus 114

20.9 km/h aus ESE

0.1 C

-1.4 C

-1.3 C

2.1 C

0 W/m

0.00 mm

21:15

2.2 C

989.7 hpa

86 %

12.9 km/h aus 118

20.9 km/h aus SE

0.1 C

-1.4 C

-1.3 C

2.1 C

0 W/m

0.00 mm

21:20

2.3 C

989.7 hpa

86 %

16.1 km/h aus 117

22.5 km/h aus ESE

0.2 C

-1.9 C

-1.8 C

2.2 C

0 W/m

0.00 mm

21:25

2.3 C

989.7 hpa

86 %

19.3 km/h aus 117

29.0 km/h aus ESE

0.2 C

-2.4 C

-2.3 C

2.2 C

0 W/m

0.00 mm

21:30

2.3 C

989.5 hpa

86 %

25.7 km/h aus 117

33.8 km/h aus SE

0.2 C

-3.1 C

-3.0 C

2.2 C

0 W/m

0.00 mm

21:35

2.3 C

989.5 hpa

86 %

22.5 km/h aus 115

30.6 km/h aus SE

0.2 C

-2.7 C

-2.6 C

2.2 C

0 W/m

0.00 mm

21:40

2.4 C

989.5 hpa

85 %

24.1 km/h aus 114

32.2 km/h aus SE

0.1 C

-2.8 C

-2.7 C

2.3 C

0 W/m

0.00 mm

21:45

2.4 C

989.0 hpa

85 %

24.1 km/h aus 114

32.2 km/h aus SE

0.1 C

-2.8 C

-2.7 C

2.3 C

0 W/m

0.00 mm

21:50

2.4 C

989.0 hpa

85 %

24.1 km/h aus 117

40.2 km/h aus SSE

0.1 C

-2.8 C

-2.7 C

2.3 C

0 W/m

0.00 mm

21:55

2.4 C

989.0 hpa

84 %

20.9 km/h aus 116

30.6 km/h aus ESE

0.0 C

-2.4 C

-2.3 C

2.3 C

0 W/m

0.00 mm

22:00

2.4 C

988.7 hpa

84 %

20.9 km/h aus 116

29.0 km/h aus SE

0.0 C

-2.4 C

-2.3 C

2.3 C

0 W/m

0.00 mm

22:05

2.4 C

988.7 hpa

84 %

20.9 km/h aus 117

32.2 km/h aus SE

0.0 C

-2.4 C

-2.3 C

2.3 C

0 W/m

0.00 mm

22:10

2.4 C

988.7 hpa

84 %

17.7 km/h aus 116

30.6 km/h aus SE

0.0 C

-2.0 C

-1.9 C

2.3 C

0 W/m

0.00 mm

22:15

2.4 C

988.5 hpa

83 %

12.9 km/h aus 113

19.3 km/h aus ESE

-0.2 C

-1.2 C

-1.1 C

2.3 C

0 W/m

0.00 mm

22:20

2.3 C

988.5 hpa

83 %

16.1 km/h aus 115

29.0 km/h aus SE

-0.3 C

-1.8 C

-1.7 C

2.2 C

0 W/m

0.00 mm

22:25

2.3 C

988.5 hpa

83 %

17.7 km/h aus 116

27.4 km/h aus SSE

-0.3 C

-2.1 C

-1.9 C

2.2 C

0 W/m

0.00 mm

22:30

2.3 C

987.9 hpa

83 %

19.3 km/h aus 117

27.4 km/h aus SSE

-0.3 C

-2.3 C

-2.2 C

2.2 C

0 W/m

0.00 mm

22:35

2.3 C

987.9 hpa

84 %

22.5 km/h aus 117

35.4 km/h aus ESE

-0.1 C

-2.7 C

-2.6 C

2.2 C

0 W/m

0.00 mm

22:40

2.4 C

987.9 hpa

84 %

25.7 km/h aus 115

37.0 km/h aus SE

0.0 C

-2.9 C

-2.8 C

2.3 C

0 W/m

0.00 mm

22:45

2.4 C

987.4 hpa

83 %

25.7 km/h aus 117

35.4 km/h aus SE

-0.2 C

-2.9 C

-2.8 C

2.3 C

0 W/m

0.00 mm

22:50

2.5 C

987.4 hpa

83 %

27.4 km/h aus 116

38.6 km/h aus ESE

-0.1 C

-3.1 C

-2.9 C

2.4 C

0 W/m

0.00 mm

22:55

2.5 C

987.4 hpa

83 %

29.0 km/h aus 114

41.8 km/h aus SE

-0.1 C

-3.2 C

-3.1 C

2.4 C

0 W/m

0.00 mm

23:00

2.6 C

987.1 hpa

83 %

27.4 km/h aus 116

37.0 km/h aus SE

0.0 C

-2.9 C

-2.8 C

2.4 C

0 W/m

0.00 mm

23:05

2.5 C

987.1 hpa

83 %

29.0 km/h aus 116

37.0 km/h aus SSE

-0.1 C

-3.2 C

-3.1 C

2.4 C

0 W/m

0.00 mm

23:10

2.6 C

987.1 hpa

83 %

29.0 km/h aus 116

40.2 km/h aus SSE

0.0 C

-3.1 C

-3.0 C

2.4 C

0 W/m

0.00 mm

23:15

2.6 C

986.8 hpa

83 %

25.7 km/h aus 117

41.8 km/h aus SSE

0.0 C

-2.8 C

-2.7 C

2.4 C

0 W/m

0.00 mm

23:20

2.6 C

986.8 hpa

83 %

24.1 km/h aus 117

32.2 km/h aus SE

0.0 C

-2.6 C

-2.5 C

2.4 C

0 W/m

0.00 mm

23:25

2.6 C

986.8 hpa

83 %

24.1 km/h aus 117

33.8 km/h aus ESE

0.0 C

-2.6 C

-2.5 C

2.4 C

0 W/m

0.00 mm

23:30

2.5 C

986.4 hpa

82 %

17.7 km/h aus 114

27.4 km/h aus SE

-0.3 C

-1.9 C

-1.7 C

2.3 C

0 W/m

0.00 mm

23:35

2.5 C

986.4 hpa

82 %

16.1 km/h aus 116

24.1 km/h aus SE

-0.3 C

-1.7 C

-1.5 C

2.3 C

0 W/m

0.00 mm

23:40

2.6 C

986.4 hpa

82 %

19.3 km/h aus 117

33.8 km/h aus ESE

-0.2 C

-2.1 C

-1.9 C

2.4 C

0 W/m

0.00 mm

23:45

2.5 C

986.0 hpa

82 %

14.5 km/h aus 117

27.4 km/h aus ESE

-0.3 C

-1.4 C

-1.2 C

2.3 C

0 W/m

0.00 mm

23:50

2.5 C

986.0 hpa

82 %

14.5 km/h aus 117

24.1 km/h aus ESE

-0.3 C

-1.4 C

-1.2 C

2.3 C

0 W/m

0.00 mm

23:55

2.5 C

986.0 hpa

82 %

16.1 km/h aus 117

32.2 km/h aus E

-0.3 C

-1.7 C

-1.5 C

2.3 C

0 W/m

0.00 mm